Regional Weather Roundup
Issued by NWS

Home | Current Version | Previous Version | Graphics & Text | Print | Product List | Glossary Off
Versions: 1 2 3 4 5 6 7 8 9 10 11 12 13 14 15 16 17 18 19 20 21 22 23 24 25 26 27 28 29 30 31 32 33 34 35 36 37 38 39 40 41 42 43 44 45 46 47 48 49 50

000
ASUS43 KMKX 211711
RWRWI

WISCONSIN REGIONAL WEATHER ROUNDUP
NATIONAL WEATHER SERVICE MILWAUKEE/SULLIVAN WI
1100 AM CST TUE NOV 21 2017

NOTE: "FAIR" INDICATES FEW OR NO CLOUDS BELOW 12,000 FEET WITH NO
SIGNIFICANT WEATHER AND/OR OBSTRUCTIONS TO VISIBILITY.

WIZ001-002-006>008-014>016-023>028-211800-
NORTHWEST WISCONSIN

CITY           SKY/WX    TMP DP  RH WIND       PRES   REMARKS
SUPERIOR ARPT  CLOUDY    24   9  51 NW17G23   30.01R WCI  11
ASHLAND        CLOUDY    24  12  60 NW20G26   29.93R WCI  10
HAYWARD        CLOUDY    23  11  60 NW8G21    29.93R WCI  14
SIREN          CLOUDY    25  11  57 NW21      30.00R WCI  10
CUMBERLAND     CLOUDY    23  10  58 NW16G24   29.96R WCI  10
RICE LAKE      CLOUDY    25  12  59 NW18G25   29.98R WCI  11
CHETEK         CLOUDY    25  13  61 NW9G20    29.95R WCI  15
LADYSMITH      CLOUDY    25  13  59 NW22G28   29.92R WCI  11
EAU CLAIRE     CLOUDY    25   9  50 NW18G30   29.96R WCI  11
MENOMONIE      CLOUDY    27  11  50 NW17G25   29.98R WCI  15
NEW RICHMOND   FLURRIES  24  12  59 NW20G26   30.01R WCI  10
OSCEOLA        CLOUDY    26  13  59 NW14G23   30.06R WCI  14
$$

WIZ003>005-009-010-017-018-211800-
NORTH CENTRAL WISCONSIN

CITY           SKY/WX    TMP DP  RH WIND       PRES   REMARKS
MANITOWISH WTR LGT SNOW  21  17  82 NW17G28   29.80R WCI   7
ARBOR VITAE    FLURRIES  24  16  72 NW20G30   29.79R WCI  10
WOODRUFF       FLURRIES  24  16  72 NW20G30   29.79R WCI  10
RHINELANDER    CLOUDY    24  12  60 NW14G33   29.78R WCI  12
EAGLE RIVER    LGT SNOW  24  15  68 NW17G31   29.75R WCI  10
LAND O LAKES   CLOUDY    24  16  70 NW17G29   29.77R WCI  10
PHILLIPS       CLOUDY    23  12  62 NW10G23   29.84R WCI  12
TOMAHAWK       CLOUDY    24  11  57 NW16G24   29.82R WCI  11
MEDFORD        CLOUDY    23  10  58 NW21G28   29.84R WCI   8
MERRILL        CLOUDY    26  11  54 NW21G26   29.82R WCI  11
$$

WIZ029-030-035-036-043>047-211800-
CENTRAL WISCONSIN

CITY           SKY/WX    TMP DP  RH WIND       PRES   REMARKS
WAUSAU         CLOUDY    27  12  53 NW22G33   29.81R WCI  13
MOSINEE        CLOUDY    27  16  63 NW14G29   29.83R WCI  15
MARSHFIELD     CLOUDY    27  12  53 NW22G31   29.84R WCI  13
STEVENS POINT  CLOUDY    27  15  58 NW14G20   29.83R WCI  16
WAUPACA        CLOUDY    33  16  48 W15G24    29.81R WCI  23
WAUTOMA        CLOUDY    30  17  58 NW16G29   29.84R WCI  19
WISC RAPIDS    CLOUDY    29  15  56 NW23G31   29.86R WCI  15
CAMP DOUGLAS   PTSUNNY   30  12  47 NW23G29   29.88R WCI  17
$$

WIZ011>013-019>022-031-037>040-048>050-211800-
NORTHEAST WISCONSIN

CITY           SKY/WX    TMP DP  RH WIND       PRES   REMARKS
ANTIGO         FLURRIES  25  15  65 NW22G32   29.76R WCI  10
SHAWANO        CLOUDY    33  17  51 NW14G26   29.77R WCI  24
OCONTO         CLOUDY    34  18  51 NW14G21   29.75R WCI  24
STURGEON BAY   CLOUDY    34  18  52 NW16G24   29.73R WCI  24
GREEN BAY      CLOUDY    35  22  58 NW22G28   29.76R WCI  23
MANITOWOC      CLOUDY    37  21  52 W18G25    29.75R WCI  27
APPLETON       PTSUNNY   34  16  47 NW21G28   29.75R WCI  22
CLINTONVILLE   CLOUDY    34  14  44 NW15G25   29.79R WCI  24
OSHKOSH        PTSUNNY   33  18  53 NW18G29   29.78R WCI  22
$$

WIZ032>034-041-042-053>061-211800-
SOUTHWEST WISCONSIN

CITY           SKY/WX    TMP DP  RH WIND       PRES   REMARKS
LA CROSSE      CLOUDY    32  16  51 NW24G30   29.95R WCI  19
SPARTA         CLOUDY    31  15  52 NW20G26   29.92R WCI  18
VIROQUA        CLOUDY    30  19  65 NW13G24   29.89R WCI  20
BOSCOBEL       CLOUDY    33  16  49 W12G21    29.93R WCI  24
PRAIRIE DU CHI CLOUDY    32  16  52 NW21G26   29.95R WCI  20
PLATTEVILLE    CLOUDY    31  19  62 NW21G29   29.91R WCI  19
$$

WIZ056-057-062-063-064-067-068-211800-
SOUTH CENTRAL WISCONSIN

CITY           SKY/WX    TMP DP  RH WIND       PRES   REMARKS
REEDSBURG      CLOUDY    30  14  52 NW16G25   29.88R WCI  19
BARABOO/DELLS  CLOUDY    30  13  50 NW16G24   29.87R WCI  18
LONE ROCK      CLOUDY    33  17  51 NW20G28   29.91R WCI  21
MINERAL POINT  CLOUDY    32  19  59 NW16G25   29.88R WCI  21
MADISON        CLOUDY    31  15  52 NW20G32   29.86R WCI  19
MIDDLETON      CLOUDY    33  17  52 NW18G29   29.87R WCI  22
WATERTOWN      CLOUDY    34  19  55 NW22G28   29.82R WCI  22
MONROE         CLOUDY    34  19  55 NW14G23   29.86R WCI  24
JANESVILLE     PTSUNNY   37  16  41 NW17G26   29.83R WCI  28
$$

WIZ051-052-058>065-066-070>072-211800-
SOUTHEAST WISCONSIN

CITY           SKY/WX    TMP DP  RH WIND       PRES   REMARKS
MILWAUKEE      CLOUDY    42  17  36 NW17G25   29.78R
WAUKESHA       MOSUNNY   36  18  48 NW14G29   29.80R WCI  27
MILWAUKEE/TIMM SUNNY     39  12  33 NW18G24   29.78R WCI  30
RACINE         CLOUDY    43  15  32 NW17G28   29.79R
BURLINGTON     CLOUDY    42  20  42 NW20      29.80R
KENOSHA        CLOUDY    43  19  38 W15G25    29.78R
FOND DU LAC    CLOUDY    33  16  49 NW17G30   29.80R WCI  22
SHEBOYGAN      CLOUDY    35  21  56 W16G30    29.77R WCI  25
WEST BEND      CLOUDY    34  19  55 NW13G23   29.79R WCI  25
JUNEAU         CLOUDY    30  17  56 W13G23    29.83R WCI  20
$$

LSZ147-162-211800-
LAKE SUPERIOR

STATION/POSITION TIME  TEMP    WIND        PRES    WAVE
                       AIR SEA DIR/SP/G            HT/PER
                 (UTC) (F)     (DEG/KT/KT) (MB)    (FT/S)
DEVILS ISLAND    1700   23     310/ 25/ 28 1014.7R
SAXON HARBOR     1640   26     310/ 22/ 29 1011.9R
$$

LMZ867-665-643>646-211800-
LAKE MICHIGAN

STATION/POSITION TIME  TEMP    WIND        PRES    WAVE
                       AIR SEA DIR/SP/G            HT/PER
                 (UTC) (F)     (DEG/KT/KT) (MB)    (FT/S)
N MID LAKE BUOY  1650   36 47  300/ 25/ 29 1005.2R   7/ 9
NORTHPORT PIER   1656   35     310/ 18/ 26 1005.8R
KEWAUNEE LAKESHO 1648   37     310/  8/ 15 1005.9R
SHEBOYGAN LAKESH 1700   36     280/ 19/ 24 1008.4R
PORT WASHINGTON  1641   39     290/ 13/ 22 1009.5R
MILWAUKEE LAKESH 1650   40     300/ 14/ 18   N/A
S MID LAKE BUOY  1650   45 48  300/ 17/ 21 1007.9R   5/ 6
KENOSHA   LAKESH 1700   43     280/ 14/ 22 1008.5
$$

TC  - TEMPERATURE IN CELSIUS
VSB - VISIBILITY IN STATUTE MILES
WCI - WIND CHILL INDEX
HX  - HEAT INDEX





USA.gov is the U.S. government's official web portal to all federal, state and local government web resources and services.